Location: Alsip
(41.6689°N, 87.7387°W)
Time: 14:53:01
(UTC+00:00)

Cosmos 1842 Rocket - Pass Details

Date: 14 July 2020
Orbit: 605 x 634 km, 82.5° (Epoch: 12 August)

Event Time Altitude Azimuth Distance (km) Brightness Sun altitude
Rises 03:14:59 0° 347° (NNW) 2,872 8.2 -16.5°
Reaches altitude 10° 03:17:15 10° 342° (NNW) 1,962 7.2 -16.7°
Maximum altitude 03:21:27 52° 266° (W) 754 4.2 -17.2°
Enters shadow 03:24:16 20° 196° (SSW) 1,426 5.1 -17.5°
